Location: Unspecified
(58.3448°N, 0.0000°E)
Time: 05:33:19
(UTC+00:00)

COSMOS 2428 - Visible Passes

Search period start: 04 April 2026 00:00
Search period end: 14 April 2026 00:00
Orbit: 842 x 856 km, 70.9° (Epoch: 29 March)

Date Brightness Start Highest point End Pass type
(mag) Time Alt. Az. Time Alt. Az. Time Alt. Az.
4 Apr 3.8 00:47:15 22° W 00:50:30 41° NW 00:55:56 10° NE visible
4 Apr 4.7 02:31:36 10° WNW 02:36:14 24° N 02:40:52 10° NE visible
4 Apr 4.7 04:17:24 10° NW 04:22:16 27° NNE 04:27:07 10° ENE visible
4 Apr 4.2 21:10:14 18° E 21:10:14 18° E 21:13:33 10° ENE visible
4 Apr 2.6 22:52:09 60° S 22:53:04 71° ESE 22:58:48 10° NE visible
5 Apr 3.8 00:34:04 19° W 00:37:43 41° NW 00:43:09 10° NE visible
5 Apr 4.7 02:18:48 10° WNW 02:23:26 24° N 02:28:04 10° NE visible
5 Apr 4.7 04:04:36 10° NW 04:09:28 27° NNE 04:14:19 10° ENE visible
5 Apr 4.1 20:56:58 18° E 20:56:59 18° E 21:00:45 10° ENE visible
5 Apr 2.6 22:38:52 50° S 22:40:17 70° ESE 22:46:01 10° NE visible
6 Apr 3.8 00:20:46 16° W 00:24:55 41° NW 00:30:22 10° NE visible
6 Apr 4.8 02:06:00 10° WNW 02:10:38 24° N 02:15:17 10° NE visible
6 Apr 4.7 03:51:49 10° NW 03:56:41 27° NNE 04:01:31 10° ENE visible
6 Apr 4.1 20:43:31 18° ESE 20:44:12 18° E 20:47:57 10° ENE visible
6 Apr 2.6 22:25:25 40° SSW 22:27:30 70° ESE 22:33:13 10° NE visible
7 Apr 3.8 00:07:19 13° WSW 00:12:08 41° NW 00:17:35 10° NE visible
7 Apr 4.8 01:53:12 10° WNW 01:57:50 24° N 02:02:29 10° NE visible
7 Apr 4.8 03:39:01 10° NW 03:43:53 27° NNE 03:48:43 10° ENE visible
7 Apr 4.1 20:29:52 16° ESE 20:31:25 18° E 20:35:09 10° ENE visible
7 Apr 2.6 22:11:44 29° SSW 22:14:43 69° ESE 22:20:26 10° NE visible
7 Apr 3.9 23:53:55 10° WSW 23:59:21 41° NW 00:04:48 10° NE visible
8 Apr 4.8 01:40:24 10° WNW 01:45:02 24° N 01:49:41 10° NE visible
8 Apr 4.8 03:26:14 10° NW 03:31:05 27° NNE 03:35:55 10° ENE visible
8 Apr 4.1 20:15:49 13° SE 20:18:39 18° E 20:22:21 10° ENE visible
8 Apr 2.6 21:57:39 18° SSW 22:01:56 69° ESE 22:07:39 10° NE visible
8 Apr 3.9 23:41:07 10° WSW 23:46:33 42° NW 23:52:00 10° NE visible
9 Apr 4.9 01:27:37 10° WNW 01:32:15 24° N 01:36:53 10° NE visible
9 Apr 4.8 03:13:27 10° NW 03:18:17 27° NNE 03:23:07 10° ENE visible
9 Apr 4.1 20:02:12 10° SE 20:05:52 18° E 20:09:33 10° ENE visible
9 Apr 2.6 21:43:27 10° SSW 21:49:09 68° ESE 21:54:52 10° NE visible
9 Apr 3.9 23:28:19 10° WSW 23:33:46 42° NW 23:39:13 10° NE visible
10 Apr 4.9 01:14:48 10° WNW 01:19:27 24° N 01:24:06 10° NE visible
10 Apr 4.9 03:00:39 10° NW 03:05:29 27° NNE 03:10:19 10° ENE visible
10 Apr 4.1 19:49:27 10° SE 19:53:05 18° E 19:56:44 10° ENE visible
10 Apr 2.6 21:30:41 10° SSW 21:36:21 68° ESE 21:42:04 10° NE visible
10 Apr 3.9 23:15:32 10° WSW 23:20:58 42° NW 23:26:26 10° NE visible
11 Apr 4.9 01:02:00 10° WNW 01:06:40 24° N 01:11:18 10° NE visible
11 Apr 4.9 02:47:52 10° NW 02:52:42 27° NNE 02:57:31 10° ENE visible
11 Apr 2.7 21:17:53 10° SSW 21:23:35 68° ESE 21:29:17 10° NE visible
11 Apr 3.9 23:02:44 10° WSW 23:08:11 42° NW 23:13:38 10° NE visible
12 Apr 4.9 00:49:13 10° WNW 00:53:51 24° N 00:58:31 10° NE visible
12 Apr 4.9 02:35:04 10° NW 02:39:55 27° NNE 02:44:43 10° ENE visible
12 Apr 2.7 21:05:07 10° SSW 21:10:47 67° ESE 21:16:30 10° NE visible
12 Apr 3.9 22:49:57 10° WSW 22:55:23 42° NW 23:00:51 10° NE visible
13 Apr 5.0 00:36:24 10° WNW 00:41:04 24° N 00:45:43 10° NE visible
13 Apr 4.9 02:22:17 10° NW 02:27:06 27° NNE 02:31:55 10° ENE visible
13 Apr 3.7 04:06:54 10° NW 04:12:33 54° NE 04:18:09 10° ESE visible
13 Apr 2.7 20:52:20 10° SSW 20:58:00 67° ESE 21:03:43 10° NE visible
13 Apr 4.0 22:37:08 10° WSW 22:42:36 43° NW 22:48:04 10° NE visible
